Location: La B�doule
(43.2468°N, 5.5934°E)
Time: 04:02:16
(UTC+00:00)

CZ-2C R/B - Pass Details

Date: 07 June 2020
Orbit: 503 x 567 km, 97.7° (Epoch: 04 July)

Event Time Altitude Azimuth Distance (km) Brightness Sun altitude
Rises 02:59:11 0° 13° (NNE) 2,638 7.4 -9.2°
Reaches altitude 10° 03:01:16 10° 15° (NNE) 1,754 6.4 -9.0°
Maximum altitude 03:05:03 80° 102° (ESE) 537 2.8 -8.4°
Drops below altitude 10° 03:08:53 10° 190° (S) 1,775 4.9 -7.9°
Enters shadow 03:10:00 - 191° (S) 2,242 5.5 -7.8°
